Weather History for Nashua, NH

Change the Weather History Date:

Saturday, November 26, 2011

  Actual Average Record
Temperature  
Mean Temperature 48 °F -  
Max Temperature 63 °F 45 °F 66 °F (2001)
Min Temperature 32 °F 25 °F 11 °F (1993)
Degree Days  
Heating Degree Days 18    
Moisture  
Dew Point 36 °F    
Average Humidity 72    
Maximum Humidity 93    
Minimum Humidity 38    
Precipitation  
Precipitation 0.00 in - - ()
Sea Level Pressure  
Sea Level Pressure 30.15 in    
Wind  
Wind Speed 1 mph (NW)    
Max Wind Speed 7 mph    
Max Gust Speed -    
Visibility 10 miles    
Events      
Averages and records for this station are not official NWS values.
T = Trace of Precipitation, MM = Missing Value Source: NWS Daily Summary

Daily Weather History Graph

Daily Weather History Graph

Search for Another Location

Airport:

Trip Planner

Search our weather history database for the weather conditions in past years. The results will help you decide how hot, cold, wet, or windy it might be!

Date:

Astronomy

Nov. 26, 2011 Rise Set
Actual Time 6:50 AM EST 4:15 PM EST
Civil Twilight 6:19 AM EST 4:46 PM EST
Nautical Twilight 5:44 AM EST 5:21 PM EST
Astronomical Twilight 5:10 AM EST 5:55 PM EST
Moon 8:20 AM EST (11/26) 5:41 PM EST (11/26)
Length of Visible Light 10h 26m
Length of Day
9h 24m
Waxing Crescent, 3% of the Moon is Illuminated
Nov 26
Waxing Crescent
Dec 2
First Quarter
Dec 10
Full
Dec 17
Last Quarter
Dec 24
New

Hourly Weather History & Observations

Time (EST) Temp. Windchill Dew Point Humidity Pressure Visibility Wind Dir Wind Speed Gust Speed Precip Events Conditions
12:51 AM 36.0 °F - 32.0 °F 86% 30.04 in 10.0 mi Calm Calm - N/A   Clear
1:51 AM 34.9 °F - 32.0 °F 89% 30.06 in 10.0 mi Calm Calm - N/A   Clear
2:51 AM 32.9 °F - 31.1 °F 93% 30.07 in 10.0 mi Calm Calm - N/A   Clear
3:51 AM 32.9 °F - 31.1 °F 93% 30.08 in 10.0 mi Calm Calm - N/A   Clear
4:51 AM 34.9 °F - 32.9 °F 92% 30.08 in 9.0 mi Calm Calm - N/A   Clear
5:51 AM 34.9 °F - 32.0 °F 89% 30.10 in 10.0 mi Calm Calm - N/A   Clear
7:51 AM 36.9 °F - 34.0 °F 89% 30.15 in 10.0 mi Calm Calm - N/A   Clear
8:51 AM 43.9 °F - 36.0 °F 74% 30.17 in 10.0 mi Calm Calm - N/A   Clear
9:51 AM 54.9 °F - 36.9 °F 51% 30.18 in 10.0 mi Calm Calm - N/A   Clear
10:51 AM 59.0 °F - 34.9 °F 40% 30.17 in 10.0 mi NW 6.9 mph - N/A   Clear
11:51 AM 59.9 °F - 36.0 °F 41% 30.16 in 10.0 mi Variable 4.6 mph - N/A   Clear
12:51 PM 61.0 °F - 36.9 °F 41% 30.15 in 10.0 mi Variable 3.5 mph - N/A   Clear
1:51 PM 63.0 °F - 36.9 °F 38% 30.14 in 10.0 mi Calm Calm - N/A   Clear
2:51 PM 61.9 °F - 36.9 °F 39% 30.15 in 10.0 mi SSE 3.5 mph - N/A   Clear
3:51 PM 56.8 °F - 41.0 °F 55% 30.17 in 10.0 mi Calm Calm - N/A   Clear
4:51 PM 50.9 °F - 41.0 °F 69% 30.18 in 10.0 mi Calm Calm - N/A   Clear
5:51 PM 46.9 °F - 39.9 °F 77% 30.19 in 10.0 mi Calm Calm - N/A   Clear
6:51 PM 45.9 °F 44.6 °F 38.8 °F 76% 30.20 in 10.0 mi NW 3.5 mph - N/A   Clear
7:51 PM 45.0 °F - 38.8 °F 79% 30.22 in 10.0 mi Calm Calm - N/A   Clear
8:51 PM 43.9 °F - 38.8 °F 82% 30.21 in 10.0 mi Calm Calm - N/A   Clear
9:51 PM 41.9 °F 40.0 °F 37.9 °F 86% 30.22 in 10.0 mi NNW 3.5 mph - N/A   Clear
10:51 PM 39.9 °F - 37.9 °F 93% 30.22 in 10.0 mi Calm Calm - N/A   Clear
11:51 PM 36.0 °F 33.3 °F 34.0 °F 93% 30.22 in 10.0 mi NW 3.5 mph - N/A   Clear